{"data":{"norad_id":66433,"epoch":"2026-09-20T16:00:01.119168Z","epoch_age_seconds":78971,"freshness":"FRESH","line1":"1 66433U 25259M   26263.66667962  .00007923  00000+0  29706-3 0  9999","line2":"2 66433  42.9976 252.9450 0003672 261.5927  98.4508 15.27586523 49313","mean_motion":15.27586523,"eccentricity":0.0003672,"inclination_deg":42.9976,"raan_deg":252.945,"arg_perigee_deg":261.5927,"mean_anomaly_deg":98.4508,"bstar":0.00029706,"rev_number":4931,"period_min":94.26634618195,"perigee_km":480.51014353826,"apogee_km":485.54898426278,"semimajor_km":6861.1665639005,"source":"CELESTRAK","updated_at":"2026-09-21T09:00:35.908201Z"}}